Terug naar catalogus

BEIDOU 3 M28

ActiefNavigatieMEO
NORAD 58654·PAYLOAD·🇨🇳 China

Gelanceerd Dec 26, 2023 vanaf Xichang Satellite Launch Center

Loading…

Volgende Passages (komende 24 uur)

TLE

VersSource: Space-Track

Epoch: Sep 14, 2026, 10:25 UTC

1 58654U 23207A   26257.43424630 -.00000051  00000-0  00000-0 0  9997
2 58654  55.8368  59.2971 0000655  45.3182 314.6983  1.86229739 18502

Volg BEIDOU 3 M28 in realtime met AllMySat

Download on the App Store